OMD184 KMIA-KGYR

Flight info

Callsign OMD184
Flight time N/A
Altitude 38000
Route HURCN4 SMELZ Q116 JAWJA DCT CHEWS DCT SHYRE DCT KEENY DCT MHZ J4 ABI J66 EWM J4 SSO SUNSS8
Aircraft A21N/M-SDFGHIRW/LB1

Departure

Time 2026-05-04 19:09
Airport Miami International Airport (KMIA)

Arrival

Time N/A
Airport Phoenix Goodyear Airport (KGYR)
Time Latitude Longitude Altitude Speed Heading
2026-05-04 18:43 25.80600 -80.27139 21 ft 0 kts 356°
2026-05-04 18:59 25.80590 -80.27139 30 ft 3 kts 357°
2026-05-04 19:00 25.80565 -80.27137 21 ft 3 kts 357°
2026-05-04 19:00 25.80544 -80.27136 23 ft 3 kts 354°
2026-05-04 19:00 25.80524 -80.27129 23 ft 3 kts 306°
2026-05-04 19:00 25.80517 -80.27106 23 ft 3 kts 270°
2026-05-04 19:01 25.80518 -80.27092 23 ft 1 kts 267°
2026-05-04 19:01 25.80518 -80.27091 23 ft 0 kts 267°
2026-05-04 19:04 25.80518 -80.27093 23 ft 2 kts 267°
2026-05-04 19:04 25.80516 -80.27132 23 ft 8 kts 267°
2026-05-04 19:04 25.80513 -80.27220 21 ft 14 kts 267°
2026-05-04 19:04 25.80508 -80.27335 20 ft 16 kts 267°
2026-05-04 19:05 25.80503 -80.27468 20 ft 18 kts 271°
2026-05-04 19:05 25.80506 -80.27620 21 ft 21 kts 268°
2026-05-04 19:05 25.80499 -80.27790 21 ft 23 kts 267°
2026-05-04 19:05 25.80490 -80.27976 21 ft 25 kts 267°
2026-05-04 19:06 25.80482 -80.28177 21 ft 27 kts 267°
2026-05-04 19:06 25.80473 -80.28393 21 ft 29 kts 267°
2026-05-04 19:06 25.80464 -80.28623 20 ft 31 kts 267°
2026-05-04 19:06 25.80454 -80.28867 20 ft 32 kts 267°
2026-05-04 19:07 25.80444 -80.29124 20 ft 34 kts 267°
2026-05-04 19:07 25.80432 -80.29393 20 ft 36 kts 267°
2026-05-04 19:07 25.80421 -80.29674 21 ft 37 kts 267°
2026-05-04 19:07 25.80409 -80.29946 22 ft 26 kts 266°
2026-05-04 19:08 25.80401 -80.30104 21 ft 16 kts 266°
2026-05-04 19:08 25.80322 -80.30150 20 ft 9 kts 175°
2026-05-04 19:08 25.80290 -80.30119 20 ft 0 kts 87°
2026-05-04 19:08 25.80291 -80.30101 20 ft 9 kts 87°
2026-05-04 19:09 25.80311 -80.29694 20 ft 97 kts 87°
2026-05-04 19:09 25.80350 -80.28693 67 ft 154 kts 85°
2026-05-04 19:09 25.80389 -80.27529 863 ft 149 kts 81°
2026-05-04 19:09 25.80499 -80.26371 1579 ft 156 kts 82°
2026-05-04 19:10 25.80532 -80.25086 2173 ft 178 kts 84°
2026-05-04 19:10 25.80550 -80.23611 2736 ft 208 kts 85°
2026-05-04 19:10 25.80573 -80.21873 3357 ft 241 kts 86°
2026-05-04 19:10 25.80634 -80.19918 4135 ft 265 kts 81°
2026-05-04 19:11 25.81217 -80.17958 5128 ft 272 kts 56°
2026-05-04 19:11 25.82556 -80.16469 6206 ft 277 kts 28°
2026-05-04 19:11 25.84374 -80.15801 7310 ft 277 kts
2026-05-04 19:11 25.86313 -80.15726 8338 ft 282 kts 356°
2026-05-04 19:12 25.88294 -80.15773 9325 ft 286 kts 347°
2026-05-04 19:12 25.91647 -80.18005 10721 ft 302 kts 302°
2026-05-04 19:12 25.92767 -80.20069 11212 ft 322 kts 296°
2026-05-04 19:13 25.93878 -80.22290 11900 ft 334 kts 296°
2026-05-04 19:13 25.95036 -80.24549 12788 ft 339 kts 297°
2026-05-04 19:13 25.96225 -80.26832 13722 ft 343 kts 297°
2026-05-04 19:13 25.97434 -80.29135 14575 ft 348 kts 297°
2026-05-04 19:14 25.98667 -80.31469 15408 ft 352 kts 297°
2026-05-04 19:14 25.99919 -80.33832 16246 ft 357 kts 297°
2026-05-04 19:14 26.01185 -80.36225 17062 ft 362 kts 296°
2026-05-04 19:14 26.02470 -80.38655 17898 ft 366 kts 296°
2026-05-04 19:15 26.03768 -80.41107 18642 ft 370 kts 296°
2026-05-04 19:15 26.05077 -80.43579 19314 ft 373 kts 296°
2026-05-04 19:15 26.06396 -80.46073 20004 ft 376 kts 296°
2026-05-04 19:15 26.07726 -80.48588 20654 ft 379 kts 296°
2026-05-04 19:16 26.09069 -80.51128 21315 ft 382 kts 296°
2026-05-04 19:16 26.10418 -80.53682 21971 ft 385 kts 296°
2026-05-04 19:16 26.11842 -80.56227 22610 ft 391 kts 301°
2026-05-04 19:16 26.13664 -80.58515 23243 ft 400 kts 313°
2026-05-04 19:17 26.15953 -80.60346 23815 ft 412 kts 325°
2026-05-04 19:17 26.18583 -80.61707 24365 ft 419 kts 331°
2026-05-04 19:17 26.21279 -80.62965 24910 ft 422 kts 331°
2026-05-04 19:17 26.23994 -80.64233 25459 ft 424 kts 331°
2026-05-04 19:18 26.25791 -80.65081 25825 ft 425 kts 330°
2026-05-04 19:18 26.28520 -80.66381 26359 ft 427 kts 330°
2026-05-04 19:18 26.31258 -80.67691 26886 ft 430 kts 330°
2026-05-04 19:18 26.34013 -80.69012 27428 ft 432 kts 330°
2026-05-04 19:19 26.36782 -80.70342 27953 ft 435 kts 330°
2026-05-04 19:19 26.39464 -80.71868 28491 ft 431 kts 323°
2026-05-04 19:19 26.41844 -80.73847 28984 ft 424 kts 311°
2026-05-04 19:19 26.43868 -80.76221 29526 ft 421 kts 307°
2026-05-04 19:20 26.45822 -80.78636 30172 ft 418 kts 307°
2026-05-04 19:20 26.47771 -80.81032 30708 ft 416 kts 307°
2026-05-04 19:20 26.49750 -80.83445 31209 ft 415 kts 307°
2026-05-04 19:20 26.51671 -80.85780 31676 ft 414 kts 307°
2026-05-04 19:21 26.53617 -80.88140 32151 ft 413 kts 307°
2026-05-04 19:21 26.55564 -80.90497 32594 ft 412 kts 307°
2026-05-04 19:21 26.57502 -80.92850 33023 ft 412 kts 307°
2026-05-04 19:21 26.59441 -80.95206 33478 ft 410 kts 307°
2026-05-04 19:22 26.61373 -80.97547 33897 ft 410 kts 307°
2026-05-04 19:22 26.63304 -80.99889 34273 ft 409 kts 307°
2026-05-04 19:22 26.65226 -81.02223 34633 ft 408 kts 307°
2026-05-04 19:22 26.67121 -81.04526 35000 ft 407 kts 307°
2026-05-04 19:23 26.69037 -81.06854 35347 ft 406 kts 306°
2026-05-04 19:23 26.70950 -81.09183 35681 ft 406 kts 306°
2026-05-04 19:23 26.72860 -81.11508 36026 ft 405 kts 306°
2026-05-04 19:23 26.74763 -81.13826 36361 ft 404 kts 306°
2026-05-04 19:24 26.76658 -81.16141 36681 ft 403 kts 306°
2026-05-04 19:24 26.78555 -81.18456 36984 ft 403 kts 306°
2026-05-04 19:24 26.80447 -81.20764 37293 ft 403 kts 306°
2026-05-04 19:24 26.82346 -81.23075 37572 ft 402 kts 306°
2026-05-04 19:25 26.84237 -81.25378 37862 ft 402 kts 305°
2026-05-04 19:25 26.86128 -81.27686 38054 ft 403 kts 305°
2026-05-04 19:25 26.88023 -81.30001 38070 ft 403 kts 305°
2026-05-04 19:26 26.91814 -81.34635 38051 ft 403 kts 305°
2026-05-04 19:26 26.95600 -81.39275 38037 ft 403 kts 305°
2026-05-04 19:27 26.99389 -81.43920 38039 ft 404 kts 305°
2026-05-04 19:27 27.03179 -81.48570 38038 ft 404 kts 305°
2026-05-04 19:28 27.07485 -81.52730 38041 ft 418 kts 319°
2026-05-04 19:28 27.12417 -81.56218 38048 ft 419 kts 320°
2026-05-04 19:29 27.17336 -81.59729 38047 ft 419 kts 319°
2026-05-04 19:29 27.22240 -81.63266 38054 ft 419 kts 319°
2026-05-04 19:30 27.27139 -81.66810 38055 ft 419 kts 319°
2026-05-04 19:30 27.32034 -81.70355 38060 ft 419 kts 319°
2026-05-04 19:31 27.36932 -81.73904 38059 ft 419 kts 319°
2026-05-04 19:31 27.41827 -81.77454 38060 ft 418 kts 319°
2026-05-04 19:32 27.46780 -81.80848 38060 ft 426 kts 326°
2026-05-04 19:32 27.52226 -81.83536 38062 ft 429 kts 329°
2026-05-04 19:33 27.57706 -81.86178 38067 ft 428 kts 328°
2026-05-04 19:33 27.63168 -81.88839 38066 ft 427 kts 328°
2026-05-04 19:34 27.68624 -81.91504 38070 ft 427 kts 328°
2026-05-04 19:34 27.74079 -81.94170 38070 ft 427 kts 328°
2026-05-04 19:35 27.79525 -81.96833 38075 ft 426 kts 328°
2026-05-04 19:35 27.84967 -81.99498 38059 ft 426 kts 328°
2026-05-04 19:36 27.90401 -82.02165 38071 ft 426 kts 329°
2026-05-04 19:36 27.95832 -82.04828 38073 ft 425 kts 329°
2026-05-04 19:37 28.01246 -82.07489 38069 ft 424 kts 329°
2026-05-04 19:37 28.06617 -82.10134 38071 ft 423 kts 328°
2026-05-04 19:38 28.11609 -82.13455 38084 ft 412 kts 317°
2026-05-04 19:38 28.16249 -82.17265 38083 ft 412 kts 317°
2026-05-04 19:39 28.20924 -82.21024 38083 ft 412 kts 318°
2026-05-04 19:39 28.25611 -82.24772 38081 ft 412 kts 318°
2026-05-04 19:40 28.30299 -82.28520 38079 ft 412 kts 318°
2026-05-04 19:40 28.34980 -82.32268 38080 ft 412 kts 318°
2026-05-04 19:41 28.39664 -82.36018 38085 ft 412 kts 318°
2026-05-04 19:41 28.44341 -82.39773 38082 ft 412 kts 318°
2026-05-04 19:42 28.49018 -82.43531 38080 ft 412 kts 318°
2026-05-04 19:42 28.53693 -82.47290 38085 ft 412 kts 318°
2026-05-04 19:43 28.58367 -82.51055 38083 ft 412 kts 318°
2026-05-04 19:43 28.63042 -82.54824 38079 ft 412 kts 318°
2026-05-04 19:44 28.67680 -82.58569 38065 ft 411 kts 318°
2026-05-04 19:44 28.72336 -82.62339 38066 ft 411 kts 318°
2026-05-04 19:45 28.76994 -82.66109 38060 ft 411 kts 318°
2026-05-04 19:45 28.81647 -82.69879 38065 ft 410 kts 318°
2026-05-04 19:46 28.86298 -82.73655 38063 ft 410 kts 318°
2026-05-04 19:46 28.90949 -82.77431 38061 ft 411 kts 318°
2026-05-04 19:47 28.95609 -82.81211 38060 ft 411 kts 318°
2026-05-04 19:47 29.00264 -82.84981 38059 ft 410 kts 318°
2026-05-04 19:48 29.04915 -82.88768 38057 ft 410 kts 318°
2026-05-04 19:48 29.09553 -82.92547 38053 ft 410 kts 318°
2026-05-04 19:49 29.14191 -82.96328 38057 ft 409 kts 318°
2026-05-04 19:49 29.18821 -83.00117 38055 ft 409 kts 319°
2026-05-04 19:50 29.23415 -83.03871 38055 ft 408 kts 318°
2026-05-04 19:50 29.28035 -83.07655 38062 ft 408 kts 318°
2026-05-04 19:51 29.32643 -83.11432 38060 ft 407 kts 319°
2026-05-04 19:51 29.37248 -83.15210 38060 ft 407 kts 319°
2026-05-04 19:52 29.41843 -83.18985 38068 ft 406 kts 319°
2026-05-04 19:52 29.46430 -83.22759 38068 ft 406 kts 319°
2026-05-04 19:53 29.51009 -83.26529 38065 ft 405 kts 319°
2026-05-04 19:53 29.55583 -83.30302 38070 ft 404 kts 318°
2026-05-04 19:54 29.60151 -83.34077 38065 ft 404 kts 318°
2026-05-04 19:54 29.64712 -83.37839 38068 ft 403 kts 318°
2026-05-04 19:55 29.69259 -83.41600 38068 ft 402 kts 318°
2026-05-04 19:55 29.73801 -83.45360 38070 ft 401 kts 318°
2026-05-04 19:56 29.78321 -83.49117 38073 ft 400 kts 318°
2026-05-04 19:56 29.82809 -83.52844 38075 ft 399 kts 318°
2026-05-04 19:57 29.87310 -83.56583 38083 ft 398 kts 318°
2026-05-04 19:57 29.91804 -83.60322 38077 ft 398 kts 318°
2026-05-04 19:58 29.96295 -83.64061 38078 ft 398 kts 318°
2026-05-04 19:58 30.00775 -83.67795 38081 ft 397 kts 318°
2026-05-04 19:59 30.05249 -83.71526 38082 ft 396 kts 318°
2026-05-04 19:59 30.09715 -83.75262 38087 ft 396 kts 318°
2026-05-04 20:00 30.14174 -83.78999 38078 ft 395 kts 317°
2026-05-04 20:00 30.17888 -83.83492 38074 ft 383 kts 299°
2026-05-04 20:01 30.20134 -83.88961 38073 ft 379 kts 291°
2026-05-04 20:01 30.22176 -83.94581 38069 ft 379 kts 291°
2026-05-04 20:02 30.24239 -84.00185 38070 ft 379 kts 291°
2026-05-04 20:02 30.26306 -84.05783 38075 ft 378 kts 291°
2026-05-04 20:03 30.28364 -84.11371 38077 ft 378 kts 291°
2026-05-04 20:03 30.30419 -84.16955 38064 ft 377 kts 291°
2026-05-04 20:04 30.32471 -84.22542 38064 ft 377 kts 291°
2026-05-04 20:04 30.34518 -84.28121 38059 ft 375 kts 291°
2026-05-04 20:05 30.36554 -84.33681 38063 ft 375 kts 291°
2026-05-04 20:05 30.38589 -84.39245 38062 ft 375 kts 291°
2026-05-04 20:06 30.40621 -84.44810 38062 ft 375 kts 291°
2026-05-04 20:06 30.42305 -84.49428 38063 ft 374 kts 291°
2026-05-04 20:07 30.44327 -84.54982 38059 ft 374 kts 291°
2026-05-04 20:07 30.46342 -84.60531 38064 ft 374 kts 291°
2026-05-04 20:08 30.48358 -84.66079 38060 ft 373 kts 291°
2026-05-04 20:08 30.50370 -84.71630 38063 ft 373 kts 292°
2026-05-04 20:09 30.52376 -84.77180 38066 ft 373 kts 292°
2026-05-04 20:09 30.54378 -84.82727 38062 ft 372 kts 292°
2026-05-04 20:10 30.56378 -84.88277 38059 ft 373 kts 292°
2026-05-04 20:10 30.58378 -84.93834 38061 ft 373 kts 292°
2026-05-04 20:11 30.60375 -84.99391 38060 ft 373 kts 292°
2026-05-04 20:11 30.62361 -85.04920 38060 ft 373 kts 292°
2026-05-04 20:12 30.64354 -85.10476 38061 ft 373 kts 292°
2026-05-04 20:12 30.66341 -85.16034 38060 ft 372 kts 292°
2026-05-04 20:13 30.68327 -85.21595 38059 ft 372 kts 292°
2026-05-04 20:13 30.70306 -85.27143 38060 ft 372 kts 292°
2026-05-04 20:14 30.72284 -85.32693 38059 ft 372 kts 292°
2026-05-04 20:14 30.74258 -85.38244 38053 ft 371 kts 292°
2026-05-04 20:15 30.76225 -85.43785 38067 ft 371 kts 292°
2026-05-04 20:15 30.78189 -85.49327 38079 ft 370 kts 292°
2026-05-04 20:16 30.80135 -85.54870 38081 ft 370 kts 291°
2026-05-04 20:16 30.82000 -85.60447 38083 ft 370 kts 291°
2026-05-04 20:17 30.83858 -85.66025 38081 ft 369 kts 291°
2026-05-04 20:17 30.85699 -85.71556 38080 ft 369 kts 291°
2026-05-04 20:18 30.87550 -85.77121 38064 ft 368 kts 292°
2026-05-04 20:18 30.89399 -85.82685 38048 ft 368 kts 292°
2026-05-04 20:19 30.91240 -85.88243 38037 ft 368 kts 292°
2026-05-04 20:19 30.93077 -85.93801 38037 ft 368 kts 292°
2026-05-04 20:20 30.94915 -85.99362 38036 ft 368 kts 292°
2026-05-04 20:20 30.96747 -86.04917 38038 ft 367 kts 292°
2026-05-04 20:21 30.98573 -86.10473 38051 ft 367 kts 292°
2026-05-04 20:21 31.01310 -86.18806 38063 ft 367 kts 292°
2026-05-04 20:22 31.03130 -86.24362 38070 ft 366 kts 292°
2026-05-04 20:22 31.04947 -86.29914 38067 ft 366 kts 292°
2026-05-04 20:23 31.06748 -86.35424 38073 ft 366 kts 292°
2026-05-04 20:23 31.08567 -86.41007 38074 ft 366 kts 292°
2026-05-04 20:24 31.10360 -86.46516 38068 ft 365 kts 292°
2026-05-04 20:24 31.12159 -86.52059 38066 ft 365 kts 292°
2026-05-04 20:25 31.13957 -86.57604 38066 ft 365 kts 292°
2026-05-04 20:25 31.15751 -86.63141 38063 ft 365 kts 292°
2026-05-04 20:26 31.17543 -86.68684 38061 ft 365 kts 292°
2026-05-04 20:26 31.19331 -86.74221 38061 ft 364 kts 292°
2026-05-04 20:27 31.21113 -86.79755 38057 ft 364 kts 292°
2026-05-04 20:27 31.22894 -86.85291 38056 ft 364 kts 292°
2026-05-04 20:28 31.24672 -86.90827 38055 ft 364 kts 292°
2026-05-04 20:28 31.26445 -86.96360 38049 ft 364 kts 292°
2026-05-04 20:29 31.28216 -87.01898 38049 ft 363 kts 292°
2026-05-04 20:29 31.29982 -87.07426 38051 ft 363 kts 292°
2026-05-04 20:30 31.31745 -87.12954 38049 ft 362 kts 292°
2026-05-04 20:30 31.33503 -87.18473 38052 ft 362 kts 292°
2026-05-04 20:31 31.35245 -87.23952 38053 ft 361 kts 292°
2026-05-04 20:31 31.36995 -87.29468 38053 ft 361 kts 292°
2026-05-04 20:32 31.38741 -87.34978 38056 ft 361 kts 292°
2026-05-04 20:32 31.40485 -87.40488 38056 ft 360 kts 292°
2026-05-04 20:33 31.42224 -87.45989 38058 ft 360 kts 293°
2026-05-04 20:33 31.43958 -87.51498 38056 ft 360 kts 293°
2026-05-04 20:34 31.45685 -87.56993 38059 ft 359 kts 293°
2026-05-04 20:34 31.47412 -87.62484 38056 ft 359 kts 293°
2026-05-04 20:35 31.49131 -87.67969 38056 ft 358 kts 293°
2026-05-04 20:35 31.50844 -87.73445 38058 ft 357 kts 293°
2026-05-04 20:36 31.52564 -87.78903 38057 ft 356 kts 294°
2026-05-04 20:36 31.54492 -87.84244 38049 ft 355 kts 296°
2026-05-04 20:37 31.56436 -87.89559 38056 ft 354 kts 296°
2026-05-04 20:37 31.58373 -87.94865 38047 ft 354 kts 296°
2026-05-04 20:38 31.60290 -88.00138 38055 ft 353 kts 296°
2026-05-04 20:38 31.62214 -88.05431 38052 ft 352 kts 296°
2026-05-04 20:39 31.64134 -88.10718 38050 ft 352 kts 296°
2026-05-04 20:39 31.66048 -88.16004 38052 ft 351 kts 296°
2026-05-04 20:40 31.67955 -88.21279 38048 ft 351 kts 296°
2026-05-04 20:40 31.69862 -88.26555 38052 ft 351 kts 296°
2026-05-04 20:41 31.71762 -88.31822 38046 ft 350 kts 296°
2026-05-04 20:41 31.73658 -88.37084 38043 ft 350 kts 296°
2026-05-04 20:42 31.75548 -88.42344 38048 ft 349 kts 296°
2026-05-04 20:42 31.77432 -88.47594 38043 ft 348 kts 296°
2026-05-04 20:43 31.79314 -88.52845 38043 ft 348 kts 296°
2026-05-04 20:43 31.81187 -88.58079 38042 ft 347 kts 296°
2026-05-04 20:44 31.83057 -88.63312 38043 ft 347 kts 296°
2026-05-04 20:44 31.84920 -88.68541 38042 ft 346 kts 296°
2026-05-04 20:45 31.86779 -88.73758 38037 ft 346 kts 296°
2026-05-04 20:45 31.88633 -88.78972 38042 ft 345 kts 296°
2026-05-04 20:46 31.90503 -88.84169 38041 ft 344 kts 298°
2026-05-04 20:46 31.92632 -88.89208 38040 ft 343 kts 299°
2026-05-04 20:47 31.94780 -88.94222 38043 ft 343 kts 299°
2026-05-04 20:47 31.96921 -88.99240 38042 ft 343 kts 299°
2026-05-04 20:48 31.99044 -89.04222 38043 ft 342 kts 299°
2026-05-04 20:48 32.01172 -89.09231 38042 ft 342 kts 299°
2026-05-04 20:49 32.03297 -89.14239 38036 ft 341 kts 299°
2026-05-04 20:49 32.05422 -89.19241 38043 ft 341 kts 299°
2026-05-04 20:50 32.07543 -89.24248 38036 ft 341 kts 299°
2026-05-04 20:50 32.09658 -89.29246 38036 ft 341 kts 299°
2026-05-04 20:51 32.11769 -89.34246 38033 ft 340 kts 299°
2026-05-04 20:51 32.13875 -89.39240 38039 ft 340 kts 299°
2026-05-04 20:52 32.15978 -89.44234 38042 ft 339 kts 299°
2026-05-04 20:52 32.18079 -89.49228 38038 ft 340 kts 299°
2026-05-04 20:53 32.20178 -89.54223 38039 ft 339 kts 299°
2026-05-04 20:53 32.22270 -89.59211 38039 ft 339 kts 299°
2026-05-04 20:54 32.24346 -89.64170 38037 ft 339 kts 299°
2026-05-04 20:54 32.26431 -89.69151 38033 ft 338 kts 299°
2026-05-04 20:55 32.28177 -89.73330 38034 ft 338 kts 299°
2026-05-04 20:55 32.30254 -89.78310 38037 ft 338 kts 299°
2026-05-04 20:56 32.32329 -89.83292 38041 ft 337 kts 299°
2026-05-04 20:56 32.34387 -89.88237 38044 ft 337 kts 299°
2026-05-04 20:57 32.36454 -89.93212 38047 ft 337 kts 299°
2026-05-04 20:57 32.38516 -89.98182 38053 ft 337 kts 299°
2026-05-04 20:58 32.40577 -90.03157 38013 ft 336 kts 299°
2026-05-04 20:58 32.42614 -90.08141 37997 ft 336 kts 297°
2026-05-04 20:59 32.43816 -90.13554 38002 ft 346 kts 285°
2026-05-04 20:59 32.44394 -90.19216 38000 ft 346 kts 284°
2026-05-04 21:00 32.44974 -90.24864 38019 ft 346 kts 284°
2026-05-04 21:00 32.45560 -90.30507 38020 ft 345 kts 284°
2026-05-04 21:01 32.46146 -90.36151 38020 ft 345 kts 284°
2026-05-04 21:01 32.46728 -90.41778 38026 ft 344 kts 284°
2026-05-04 21:02 32.47303 -90.47365 38024 ft 344 kts 284°
2026-05-04 21:02 32.47880 -90.52991 38023 ft 344 kts 284°
2026-05-04 21:03 32.48455 -90.58615 38027 ft 344 kts 284°
2026-05-04 21:03 32.49025 -90.64228 38025 ft 343 kts 284°
2026-05-04 21:04 32.49597 -90.69834 38030 ft 343 kts 284°
2026-05-04 21:04 32.50163 -90.75432 38033 ft 342 kts 284°
2026-05-04 21:05 32.50721 -90.81028 38035 ft 342 kts 284°
2026-05-04 21:05 32.51277 -90.86612 38031 ft 342 kts 284°
2026-05-04 21:06 32.51833 -90.92199 38028 ft 341 kts 284°
2026-05-04 21:06 32.52385 -90.97775 38024 ft 341 kts 284°
2026-05-04 21:07 32.52931 -91.03317 38027 ft 341 kts 284°
2026-05-04 21:07 32.53479 -91.08889 37974 ft 340 kts 284°
2026-05-04 21:08 32.54023 -91.14457 37966 ft 340 kts 284°
2026-05-04 21:08 32.54572 -91.20087 37955 ft 349 kts 283°
2026-05-04 21:09 32.55128 -91.25839 37953 ft 352 kts 283°
2026-05-04 21:09 32.55681 -91.31594 37951 ft 352 kts 283°
2026-05-04 21:10 32.56233 -91.37358 37965 ft 351 kts 283°
2026-05-04 21:10 32.56782 -91.43112 37978 ft 351 kts 283°
2026-05-04 21:11 32.57328 -91.48865 37992 ft 351 kts 283°
2026-05-04 21:11 32.57870 -91.54619 38004 ft 351 kts 283°
2026-05-04 21:12 32.58412 -91.60366 38015 ft 351 kts 283°
2026-05-04 21:12 32.58951 -91.66117 38011 ft 351 kts 283°
2026-05-04 21:13 32.59482 -91.71826 38009 ft 350 kts 283°
2026-05-04 21:13 32.60014 -91.77571 37999 ft 350 kts 283°
2026-05-04 21:14 32.60542 -91.83311 38005 ft 350 kts 283°
2026-05-04 21:14 32.61066 -91.89053 38002 ft 350 kts 283°
2026-05-04 21:15 32.61591 -91.94793 37994 ft 350 kts 283°
2026-05-04 21:15 32.62112 -92.00528 37991 ft 350 kts 283°
2026-05-04 21:16 32.62632 -92.06270 37993 ft 351 kts 283°
2026-05-04 21:16 32.63146 -92.12006 37992 ft 350 kts 283°
2026-05-04 21:17 32.63659 -92.17741 37992 ft 350 kts 282°
2026-05-04 21:17 32.64168 -92.23478 37992 ft 350 kts 282°
2026-05-04 21:18 32.64676 -92.29223 37994 ft 350 kts 282°
2026-05-04 21:18 32.65182 -92.34967 37984 ft 350 kts 282°
2026-05-04 21:19 32.65683 -92.40705 37979 ft 350 kts 282°
2026-05-04 21:19 32.66180 -92.46414 37976 ft 350 kts 282°
2026-05-04 21:20 32.66676 -92.52156 37973 ft 350 kts 282°
2026-05-04 21:20 32.67171 -92.57904 37973 ft 350 kts 282°
2026-05-04 21:21 32.67663 -92.63644 37980 ft 350 kts 282°
2026-05-04 21:21 32.68153 -92.69392 37972 ft 350 kts 282°
2026-05-04 21:22 32.68641 -92.75139 37987 ft 350 kts 282°
2026-05-04 21:22 32.69125 -92.80886 37983 ft 350 kts 282°
2026-05-04 21:23 32.69608 -92.86639 37979 ft 350 kts 282°
2026-05-04 21:23 32.70088 -92.92396 37970 ft 350 kts 282°
2026-05-04 21:24 32.70565 -92.98154 37972 ft 350 kts 282°
2026-05-04 21:24 32.71041 -93.03920 37967 ft 351 kts 282°
2026-05-04 21:25 32.71516 -93.09687 37968 ft 351 kts 281°
2026-05-04 21:25 32.71984 -93.15461 37960 ft 351 kts 281°
2026-05-04 21:26 32.72450 -93.21233 37960 ft 351 kts 281°
2026-05-04 21:26 32.72914 -93.27006 37958 ft 351 kts 281°
2026-05-04 21:27 32.73375 -93.32747 37959 ft 351 kts 281°
2026-05-04 21:27 32.73835 -93.38527 37958 ft 351 kts 281°
2026-05-04 21:28 32.74288 -93.44307 37957 ft 351 kts 281°
2026-05-04 21:28 32.74742 -93.50087 37960 ft 352 kts 281°
2026-05-04 21:29 32.75198 -93.55872 37957 ft 352 kts 281°
2026-05-04 21:29 32.75647 -93.61658 37955 ft 352 kts 281°
2026-05-04 21:30 32.76093 -93.67451 37950 ft 352 kts 281°
2026-05-04 21:30 32.76538 -93.73242 37950 ft 352 kts 281°
2026-05-04 21:31 32.77173 -93.81933 37949 ft 353 kts 279°
2026-05-04 21:32 32.77455 -93.87758 37946 ft 353 kts 279°
2026-05-04 21:32 32.77730 -93.93586 37943 ft 354 kts 279°
2026-05-04 21:33 32.78005 -93.99417 37937 ft 353 kts 279°
2026-05-04 21:33 32.78278 -94.05248 37934 ft 353 kts 279°
2026-05-04 21:34 32.78549 -94.11080 37928 ft 353 kts 279°
2026-05-04 21:34 32.78816 -94.16908 37927 ft 353 kts 279°
2026-05-04 21:35 32.79080 -94.22701 37925 ft 353 kts 279°
2026-05-04 21:35 32.79341 -94.28530 37924 ft 353 kts 279°
2026-05-04 21:36 32.79601 -94.34361 37920 ft 354 kts 279°
2026-05-04 21:36 32.79857 -94.40198 37924 ft 354 kts 279°
2026-05-04 21:37 32.80112 -94.46035 37919 ft 354 kts 279°
2026-05-04 21:37 32.80362 -94.51873 37913 ft 354 kts 278°
2026-05-04 21:38 32.80610 -94.57709 37910 ft 353 kts 278°
2026-05-04 21:38 32.80857 -94.63549 37915 ft 353 kts 278°
2026-05-04 21:39 32.81100 -94.69382 37921 ft 353 kts 278°
2026-05-04 21:39 32.81339 -94.75177 37931 ft 353 kts 278°
2026-05-04 21:40 32.81576 -94.81013 37928 ft 354 kts 278°
2026-05-04 21:40 32.81810 -94.86849 37939 ft 354 kts 278°
2026-05-04 21:41 32.82044 -94.92688 37935 ft 354 kts 278°
2026-05-04 21:41 32.82274 -94.98529 37931 ft 354 kts 278°
2026-05-04 21:42 32.82464 -95.03390 37929 ft 354 kts 278°
2026-05-04 21:42 32.82689 -95.09236 37925 ft 354 kts 278°
2026-05-04 21:43 32.82911 -95.15087 37921 ft 354 kts 278°
2026-05-04 21:43 32.83131 -95.20937 37912 ft 354 kts 278°
2026-05-04 21:44 32.83349 -95.26788 37880 ft 354 kts 278°
2026-05-04 21:44 32.83563 -95.32639 37877 ft 354 kts 278°
2026-05-04 21:45 32.83773 -95.38490 37870 ft 354 kts 278°
2026-05-04 21:45 32.83982 -95.44346 37870 ft 354 kts 278°
2026-05-04 21:46 32.84121 -95.48264 37869 ft 354 kts 278°